No particular awareness of the weather is required.    There are no Weather-warnings




My webcam more information My webcam


Meteosat more information Meteosat


Rain radar more information rain snow radar


Visit our other weather sites:

Template documentation
and downloads

And another site



Select another period ( hide this area )

Units Period Custom range Directly to
Metric English Both
Daily Weekly Monthly Yearly
use both date-selectors for a custom range
previous Day
With this date

WeatherUnderground graphs for this period ( click here )


Warning: Division by zero in /var/www/vhosts/5/103384/webspace/httpdocs/santgenismeteo.org/weather28/wu/WU-History4.php on line 835
Daily Summary for Saturday 14 December 2019
Time Temp. ( °C ) Dew pt. ( °C ) Wind ( km/h ) from Gust ( km/h ) Pressure ( hPa ) Humid.( % ) Rainrate ( cm ) Solar ( W/m2 )
High17,7 6,5 24,8 East ( 616/1706 ) 31,4 1012,4 54 - 0
Average15,4 4,7 7,0 East #77/244 -21,1 1009,0 49 - 0 #0/244
Low13,9 3,3 -   -1607,4 1004,3 45 -  
Daily Tabular details for Saturday 14 December 2019
Time Temp. ( °C ) Dew pt. ( °C ) Wind ( km/h ) from Gust ( km/h ) Pressure ( hPa ) Humid.( % ) Rainrate ( cm ) Solar ( W/m2 )
00:03 15,8 6,5   Calm 3,5 1005,3 54 - -
00:08 15,9 6,3 8,7 WNW 20,1 1005,3 53 - -
00:13 15,9 6,3 1,8 East 10,5 1005,3 53 - -
00:18 15,9 6,3 5,5 East 16,9 1005,3 53 - -
00:23 15,9 6,1 5,8 WNW 13,0 1005,3 52 - -
00:28 15,9 6,1 11,6 WNW 11,6 1005,3 52 - -
00:33 15,9 6,1 16,9 WNW 16,9 1005,3 52 - -
00:38 15,9 6,1 5,8 SW 16,9 1005,3 52 - -
00:43 15,9 5,8 7,9 WNW 7,9 1005,3 51 - -
00:48 15,9 5,8 7,9 WNW 7,9 1006,3 51 - -
00:53 15,9 5,8 5,8 NNE 14,0 1006,3 51 - -
00:58 15,9 5,5 1,4 East 7,9 1006,3 50 - -
01:03 15,9 5,5 1,8 WSW 9,3 1005,3 50 - -
01:08 15,9 5,5 9,7 East 24,5 1005,3 50 - -
01:13 15,9 5,5 15,8 East 15,8 1005,3 50 - -
01:18 16,0 5,3 4,7 WNW 16,9 1005,3 49 - -
01:23 16,0 5,3 2,1 East 12,6 1005,3 49 - -
01:28 16,0 5,3 13,0 West 23,0 1005,3 49 - -
01:33 16,0 5,3 9,3 SE 21,6 1004,3 49 - -
01:38 16,0 5,3 6,4 WSW 16,6 1004,3 49 - -
01:43 16,0 5,3 11,1 NNE 14,8 1004,3 49 - -
01:48 16,0 5,3 6,1 West 12,2 1005,3 49 - -
01:53 15,9 5,2 17,7 ESE 17,7 1005,3 49 - -
01:58 15,9 5,2 12,2 West 16,9 1005,3 49 - -
02:03 15,9 5,5 12,6 WNW 12,6 1005,3 50 - -
02:08 15,9 5,5 13,0 ENE 13,0 1005,3 50 - -
02:13 15,9 5,5 5,0 NNW 9,0 1005,3 50 - -
02:18 15,9 5,5 11,1 West 14,0 1005,3 50 - -
02:23 15,8 5,4 6,1 West 17,2 1005,3 50 - -
02:28 15,7 5,3 5,0 NW 7,9 1005,3 50 - -
02:33 15,6 5,2 5,5 SE 7,9 1005,3 50 - -
02:38 15,6 5,2 10,5 WNW 19,8 1005,3 50 - -
02:43 15,5 5,4 6,9 NNE 11,6 1005,3 51 - -
02:48 15,4 5,3 14,3 East 20,1 1005,3 51 - -
02:53 15,4 5,3 14,0 West 16,3 1005,3 51 - -
02:58 15,4 5,3 6,9 WNW 25,3 1005,3 51 - -
03:03 15,4 5,3 2,6 East 13,7 1005,3 51 - -
03:08 15,4 5,3 8,7 WNW 26,7 1005,3 51 - -
03:13 15,4 5,3 5,8 East 25,3 1005,3 51 - -
03:18 15,4 5,3 24,8 WSW 24,8 1006,3 51 - -
03:23 15,4 5,3 16,9 ENE 20,9 1006,3 51 - -
03:28 15,4 5,3 3,2 West 24,8 1006,3 51 - -
03:33 15,4 5,3 15,8 ENE 15,8 1006,3 51 - -
03:38 15,4 5,3 7,9 SE 19,1 1006,3 51 - -
03:43 15,4 5,3 5,8 East 29,9 1006,3 51 - -
03:48 15,4 5,3 7,9 West 21,2 1006,3 51 - -
03:53 15,3 5,2 6,9 SSW 16,6 1006,3 51 - -
03:58 15,2 5,1 9,3 SW 10,5 1006,3 51 - -
04:03 15,2 5,1 14,0 West 17,2 1006,3 51 - -
04:08 15,1 5,0 2,1 NNE 24,5 1006,3 51 - -
04:13 15,1 5,0 6,4 SSW 15,8 1006,3 51 - -
04:18 15,1 5,3 3,2 ESE 17,7 1007,3 52 - -
04:23 15,0 5,2 5,5 NNE 14,0 1007,3 52 - -
04:28 15,0 5,2 7,9 WNW 23,3 1007,3 52 - -
04:33 14,9 5,1 12,6 East 19,8 1006,3 52 - -
04:38 14,9 5,1 5,5 SW 16,6 1006,3 52 - -
04:43 14,9 5,1 13,0 West 28,5 1006,3 52 - -
04:48 14,9 5,1 11,1 NE 24,8 1006,3 52 - -
04:53 14,9 5,1 17,2 East 31,4 1006,3 52 - -
04:58 14,9 5,1 12,2 West 13,0 1006,3 52 - -
05:03 14,9 5,1 14,0 East 16,9 1006,3 52 - -
05:08 14,9 4,9 9,7 South 22,4 1006,3 51 - -
05:13 14,9 4,9 6,1 East 16,6 1006,3 51 - -
05:18 14,9 4,9 16,6 West 23,8 1006,3 51 - -
05:23 14,9 4,9 6,4 East 15,1 1006,3 51 - -
05:28 15,0 4,7 11,1 East 11,1 1006,3 50 - -
05:33 15,0 4,7 9,0 East 9,0 1006,3 50 - -
05:38 15,0 4,7 3,2 WSW 9,0 1006,3 50 - -
05:43 15,0 4,7 14,0 ENE 16,3 1006,3 50 - -
05:48 15,0 4,7 8,7 NW 17,7 1007,3 50 - -
05:53 14,9 4,6 22,7 East 22,7 1007,3 50 - -
05:58 14,9 4,6 4,7 East 19,8 1007,3 50 - -
06:03 14,8 4,8 9,3 SSE 20,6 1006,3 51 - -
06:08 14,8 4,8 5,8 East 23,3 1006,3 51 - -
06:13 14,8 4,8 7,6 SE 27,7 1006,3 51 - -
06:18 14,7 4,7 4,3 West 20,6 1006,3 51 - -
06:23 14,7 4,7 4,7 East 24,8 1006,3 51 - -
06:28 14,6 4,6 4,3 NNE 11,9 1006,3 51 - -
06:33 14,5 4,5 23,8 East 23,8 1006,3 51 - -
06:38 14,5 4,5 5,5 NW 20,6 1006,3 51 - -
06:43 14,5 4,5 10,5 East 15,8 1006,3 51 - -
06:48 14,4 4,4 7,6 NE 15,4 1007,3 51 - -
06:53 14,4 4,4 15,4 NNW 16,6 1007,3 51 - -
06:58 14,3 4,3 5,8 WNW 15,8 1007,3 51 - -
07:03 14,3 4,3 19,1 West 19,1 1007,3 51 - -
07:08 14,2 4,2 17,7 West 17,7 1007,3 51 - -
07:13 14,2 4,2 7,9 WSW 23,3 1007,3 51 - -
07:18 14,2 4,2 9,7 ENE 16,6 1006,3 51 - -
07:23 14,2 4,2 5,0 East 17,2 1006,3 51 - -
07:28 14,1 4,1 9,7 NNW 17,2 1006,3 51 - -
07:33 14,0 4,3 17,7 ENE 17,7 1007,3 52 - -
07:38 14,0 4,3 10,1 SSW 16,6 1007,3 52 - -
07:43 14,0 4,0 12,6 WNW 20,6 1007,3 51 - -
07:48 14,0 4,0 19,8 West 19,8 1006,3 51 - -
07:53 14,0 4,0 16,9 NNE 16,9 1006,3 51 - -
07:58 14,0 4,0 16,9 NNE 16,9 1006,3 51 - -
08:03 14,0 4,0 20,6 East 20,9 1007,3 51 - -
08:08 14,0 4,0 20,6 WNW 24,8 1007,3 51 - -
08:13 14,0 4,0 9,7 ENE 15,4 1007,3 51 - -
08:18 14,0 4,0 1,4 South 6,4 1008,4 51 - -
08:23 14,0 4,0 2,1 West 8,7 1008,4 51 - -
08:28 13,9 3,9 5,0 WNW 19,5 1008,4 51 - -
08:33 14,0 4,0 12,2 East 17,2 1008,4 51 - -
08:38 14,0 4,0 9,3 NW 21,2 1008,4 51 - -
08:43 14,0 3,7 20,1 East 24,5 1008,4 50 - -
08:48 14,2 3,9 8,7 East 13,0 1009,4 50 - -
08:53 14,2 3,9 20,6 East 20,6 1009,4 50 - -
08:58 14,2 3,9 9,0 WNW 21,2 1009,4 50 - -
09:03 14,2 3,9 12,6 East 19,5 1008,4 50 - -
09:08 14,2 3,9 10,8 East 19,8 1008,4 50 - -
09:13 14,2 3,9 6,1 ENE 23,0 1008,4 50 - -
09:18 14,3 4,0 5,8 WNW 10,5 1009,4 50 - -
09:23 14,3 4,0 5,8 West 10,5 1009,4 50 - -
09:28 14,4 4,1 14,0 East 21,2 1009,4 50 - -
09:33 14,3 4,0 6,1 East 6,4 1010,4 50 - -
09:38 14,4 4,1 16,3 ENE 16,3 1010,4 50 - -
09:43 14,4 4,1 6,9 SSE 16,3 1010,4 50 - -
09:48 14,4 4,1 6,9 SSE 6,9 1009,4 50 - -
09:53 14,5 4,2 7,9 SE 7,9 1009,4 50 - -
09:58 14,6 4,3 7,9 SE 7,9 1009,4 50 - -
10:03 14,7 4,4 7,9 SW 7,9 1009,4 50 - -
10:08 14,7 4,4 9,3 ENE 9,3 1009,4 50 - -
10:13 14,8 4,5 5,0 WNW 20,1 1009,4 50 - -
10:18 14,9 4,3 12,2 ENE 12,6 1009,4 49 - -
10:23 15,0 4,4 5,0 East 5,0 1009,4 49 - -
10:28 15,1 4,5 5,0 East 5,0 1009,4 49 - -
10:33 15,2 4,6 1,4 West 13,7 1011,4 49 - -
10:38 15,4 4,4 1,4 East 10,1 1011,4 48 - -
10:43 15,6 4,6 6,4 East 6,4 1011,4 48 - -
10:48 15,8 4,8 1,4 West 1,4 1011,4 48 - -
10:53 16,0 5,0 2,1 West 2,1 1011,4 48 - -
10:58 16,2 5,2 4,0 West 4,0 1011,4 48 - -
11:03 16,3 5,3 4,0 West 4,0 1011,4 48 - -
11:08 16,4 5,4   Calm 2,1 1011,4 48 - -
11:13 16,5 5,5   Calm 3,5 1011,4 48 - -
11:18 16,7 5,6   Calm 2,6 1011,4 48 - -
11:23 16,8 5,4 6,1 East 6,1 1011,4 47 - -
11:28 16,6 5,2 10,1 West 10,1 1011,4 47 - -
11:33 16,4 5,1 6,9 East 10,1 1011,4 47 - -
11:38 16,4 5,1 6,9 East 6,9 1011,4 47 - -
11:43 16,6 5,2 6,9 East 6,9 1011,4 47 - -
11:48 16,7 5,3 6,9 East 6,9 1012,4 47 - -
11:53 16,8 5,4 6,9 East -1607,4 1012,4 47 - -
11:58 16,9 5,5   Calm -1607,4 1012,4 47 - -
12:03 17,0 5,3   Calm -1607,4 1011,4 46 - -
12:08 16,9 5,2   Calm -1607,4 1011,4 46 - -
12:13 16,8 5,4   Calm -1607,4 1011,4 47 - -
12:18 16,9 5,5 1,4 SE 3,5 1011,4 47 - -
12:23 16,9 5,2   Calm 5,0 1011,4 46 - -
12:28 16,8 5,1 4,0 East 5,0 1011,4 46 - -
12:33 16,7 5,0 6,1 East 6,1 1010,4 46 - -
12:38 16,6 4,9 1,8 East 8,7 1010,4 46 - -
12:43 16,6 4,9   Calm 11,1 1010,4 46 - -
12:48 16,6 4,9 6,9 West 6,9 1010,4 46 - -
12:53 16,7 5,0   Calm 5,8 1010,4 46 - -
12:58 17,0 5,3   Calm   1010,4 46 - -
13:03 17,0 5,0   Calm   1011,4 45 - -
13:08 16,9 5,2 2,6 NNE 2,6 1011,4 46 - -
13:13 17,2 5,5   Calm 2,6 1011,4 46 - -
13:18 17,5 5,7 4,0 West 4,0 1010,4 46 - -
13:23 17,3 5,3 9,7 East 9,7 1010,4 45 - -
13:28 17,2 5,2   Calm 1,4 1010,4 45 - -
13:33 17,3 5,3   Calm   1010,4 45 - -
13:38 17,4 5,3 1,8 NE 1,8 1010,4 45 - -
13:43 17,4 5,3   Calm   1010,4 45 - -
13:48 17,4 5,3   Calm   1010,4 45 - -
13:53 17,6 5,5 2,6 East 2,6 1010,4 45 - -
13:58 17,6 5,5   Calm 6,1 1010,4 45 - -
14:03 17,3 5,3 1,4 West 5,5 1012,4 45 - -
14:08 17,4 5,3 3,2 East 4,0 1012,4 45 - -
14:13 17,5 5,4 4,0 East 4,0 1012,4 45 - -
14:18 17,5 5,4 6,9 East 6,9 1010,4 45 - -
14:23 17,3 5,3 4,3 WSW 4,3 1010,4 45 - -
14:28 17,4 5,3 3,2 ENE 3,2 1010,4 45 - -
14:33 17,5 5,4 1,4 WSW 3,2 1011,4 45 - -
14:38 17,5 5,4 2,1 East 2,1 1011,4 45 - -
14:43 17,6 5,5 2,6 East 5,5 1011,4 45 - -
14:48 17,4 5,3 4,7 East 5,0 1010,4 45 - -
14:53 17,3 5,3   Calm 5,8 1010,4 45 - -
14:58 17,3 5,3   Calm 4,7 1010,4 45 - -
15:03 17,5 5,4 2,6 South 2,6 1011,4 45 - -
15:08 17,6 5,5   Calm 2,1 1011,4 45 - -
15:13 17,7 5,6   Calm 6,4 1011,4 45 - -
15:18 17,6 5,5   Calm 2,1 1012,4 45 - -
15:23 17,6 5,5 1,4 West 1,4 1012,4 45 - -
15:28 17,5 5,4 1,8 WNW 5,8 1012,4 45 - -
15:33 17,4 5,3 14,0 SSE 14,0 1011,4 45 - -
15:38 17,0 5,0 1,4 WSW 14,0 1011,4 45 - -
15:43 16,8 4,8 4,0 WNW 4,0 1011,4 45 - -
15:48 16,5 4,5 7,6 NNE 15,4 1011,4 45 - -
15:53 16,3 4,3 12,6 SSE 12,6 1011,4 45 - -
15:58 16,1 4,5 8,7 SE 8,7 1011,4 46 - -
16:03 15,9 4,3 6,9 East 11,9 1010,4 46 - -
16:08 15,6 4,0 9,3 East 9,3 1010,4 46 - -
16:13 15,5 4,2 4,7 East 11,6 1010,4 47 - -
16:18 15,4 4,1 7,9 East 10,5 1010,4 47 - -
16:23 15,4 4,1 4,3 East 11,9 1010,4 47 - -
16:28 15,3 4,1 2,6 West 5,8 1010,4 47 - -
16:33 15,2 4,0 4,7 WNW 4,7 1011,4 47 - -
16:38 15,2 4,0 2,6 West 4,7 1011,4 47 - -
16:43 15,2 4,0   Calm 2,6 1011,4 47 - -
16:48 15,0 3,8 1,8 West 1,8 1010,4 47 - -
16:53 14,9 4,0 5,5 SE 9,7 1010,4 48 - -
16:58 14,8 3,9 6,9 East 16,3 1010,4 48 - -
17:03 14,7 3,8 15,1 West 15,1 1011,4 48 - -
17:08 14,7 3,8 5,8 ESE 11,6 1011,4 48 - -
17:13 14,7 3,8 6,1 ENE 16,6 1011,4 48 - -
17:18 14,6 3,7 4,3 NE 5,8 1011,4 48 - -
17:23 14,6 3,7 4,3 East 14,0 1011,4 48 - -
17:28 14,5 3,9 5,0 ESE 13,7 1011,4 49 - -
17:33 14,5 3,9 10,5 SW 11,1 1011,4 49 - -
17:38 14,4 3,8 11,9 East 15,8 1011,4 49 - -
17:43 14,4 3,8 9,7 East 9,7 1011,4 49 - -
17:48 14,4 3,8 13,7 SE 13,7 1011,4 49 - -
17:53 14,4 3,8 7,9 East 9,7 1011,4 49 - -
17:58 14,3 3,7 9,3 East 16,3 1011,4 49 - -
18:03 14,3 3,7 14,0 East 14,0 1011,4 49 - -
18:08 14,3 3,7 5,8 West 5,8 1011,4 49 - -
18:13 14,3 3,7 2,6 East 2,6 1011,4 49 - -
18:18 14,3 3,7 6,9 North 6,9 1011,4 49 - -
18:23 14,3 3,7 7,2 East 7,2 1011,4 49 - -
18:28 14,2 3,6 1,4 ENE 12,2 1011,4 49 - -
18:33 14,2 3,6 4,3 East 12,6 1011,4 49 - -
18:38 14,2 3,6 2,6 East 2,6 1011,4 49 - -
18:43 14,3 3,7 4,3 ENE 10,1 1011,4 49 - -
18:48 14,3 3,7 3,5 SSE 3,5 1011,4 49 - -
18:53 14,3 3,7 1,4 East 1,4 1011,4 49 - -
18:58 14,3 3,7 4,3 SSE 4,3 1011,4 49 - -
19:03 14,3 3,7 7,9 East 16,9 1011,4 49 - -
19:08 14,2 3,6 11,9 East 11,9 1011,4 49 - -
19:13 14,2 3,6 5,0 East 5,5 1011,4 49 - -
19:18 14,2 3,3 9,3 East 9,3 1012,4 48 - -
19:23 14,3 3,4 2,6 West 2,6 1012,4 48 - -
19:28 14,2 3,3 2,6 West 2,6 1012,4 48 - -
19:33 14,2 3,3 1,8 West 11,6 1012,4 48 - -
19:38 14,2 3,3 5,5 East 10,1 1012,4 48 - -
19:43 14,2 3,3 4,0 West 6,4 1012,4 48 - -
19:48 14,1 3,3 11,1 East 12,6 1012,4 48 - -
19:53 14,2 3,3 2,1 West 6,1 1012,4 48 - -
19:58 14,2 3,3 2,1 West 2,1 1012,4 48 - -
20:03 14,2 3,3 2,1 West 2,1 1012,4 48 - -
20:08 14,2 3,3 5,0 West 5,5 1012,4 48 - -
20:13 14,2 3,3 1,4 WSW 1,4 1012,4 48 - -
20:18 14,2 3,3 1,4 WSW 1,4 1012,4 48 - -
Daily Summary for Saturday 14 December 2019
Time Temp. ( °C ) Dew pt. ( °C ) Wind ( km/h ) from Gust ( km/h ) Pressure ( hPa ) Humid.( % ) Rainrate ( cm ) Solar ( W/m2 )
High17,7 6,5 24,8 East ( 616/1706 ) 31,4 1012,4 54 - 0
Average15,4 4,7 7,0 East #77/244 -21,1 1009,0 49 - 0 #0/244
Low13,9 3,3 -   -1607,4 1004,3 45 -  
Daily Tabular details for Saturday 14 December 2019
Time Temp. ( °C ) Dew pt. ( °C ) Wind ( km/h ) from Gust ( km/h ) Pressure ( hPa ) Humid.( % ) Rainrate ( cm ) Solar ( W/m2 )
00:03 15,8 6,5   Calm 3,5 1005,3 54 - -
00:08 15,9 6,3 8,7 WNW 20,1 1005,3 53 - -
00:13 15,9 6,3 1,8 East 10,5 1005,3 53 - -
00:18 15,9 6,3 5,5 East 16,9 1005,3 53 - -
00:23 15,9 6,1 5,8 WNW 13,0 1005,3 52 - -
00:28 15,9 6,1 11,6 WNW 11,6 1005,3 52 - -
00:33 15,9 6,1 16,9 WNW 16,9 1005,3 52 - -
00:38 15,9 6,1 5,8 SW 16,9 1005,3 52 - -
00:43 15,9 5,8 7,9 WNW 7,9 1005,3 51 - -
00:48 15,9 5,8 7,9 WNW 7,9 1006,3 51 - -
00:53 15,9 5,8 5,8 NNE 14,0 1006,3 51 - -
00:58 15,9 5,5 1,4 East 7,9 1006,3 50 - -
01:03 15,9 5,5 1,8 WSW 9,3 1005,3 50 - -
01:08 15,9 5,5 9,7 East 24,5 1005,3 50 - -
01:13 15,9 5,5 15,8 East 15,8 1005,3 50 - -
01:18 16,0 5,3 4,7 WNW 16,9 1005,3 49 - -
01:23 16,0 5,3 2,1 East 12,6 1005,3 49 - -
01:28 16,0 5,3 13,0 West 23,0 1005,3 49 - -
01:33 16,0 5,3 9,3 SE 21,6 1004,3 49 - -
01:38 16,0 5,3 6,4 WSW 16,6 1004,3 49 - -
01:43 16,0 5,3 11,1 NNE 14,8 1004,3 49 - -
01:48 16,0 5,3 6,1 West 12,2 1005,3 49 - -
01:53 15,9 5,2 17,7 ESE 17,7 1005,3 49 - -
01:58 15,9 5,2 12,2 West 16,9 1005,3 49 - -
02:03 15,9 5,5 12,6 WNW 12,6 1005,3 50 - -
02:08 15,9 5,5 13,0 ENE 13,0 1005,3 50 - -
02:13 15,9 5,5 5,0 NNW 9,0 1005,3 50 - -
02:18 15,9 5,5 11,1 West 14,0 1005,3 50 - -
02:23 15,8 5,4 6,1 West 17,2 1005,3 50 - -
02:28 15,7 5,3 5,0 NW 7,9 1005,3 50 - -
02:33 15,6 5,2 5,5 SE 7,9 1005,3 50 - -
02:38 15,6 5,2 10,5 WNW 19,8 1005,3 50 - -
02:43 15,5 5,4 6,9 NNE 11,6 1005,3 51 - -
02:48 15,4 5,3 14,3 East 20,1 1005,3 51 - -
02:53 15,4 5,3 14,0 West 16,3 1005,3 51 - -
02:58 15,4 5,3 6,9 WNW 25,3 1005,3 51 - -
03:03 15,4 5,3 2,6 East 13,7 1005,3 51 - -
03:08 15,4 5,3 8,7 WNW 26,7 1005,3 51 - -
03:13 15,4 5,3 5,8 East 25,3 1005,3 51 - -
03:18 15,4 5,3 24,8 WSW 24,8 1006,3 51 - -
03:23 15,4 5,3 16,9 ENE 20,9 1006,3 51 - -
03:28 15,4 5,3 3,2 West 24,8 1006,3 51 - -
03:33 15,4 5,3 15,8 ENE 15,8 1006,3 51 - -
03:38 15,4 5,3 7,9 SE 19,1 1006,3 51 - -
03:43 15,4 5,3 5,8 East 29,9 1006,3 51 - -
03:48 15,4 5,3 7,9 West 21,2 1006,3 51 - -
03:53 15,3 5,2 6,9 SSW 16,6 1006,3 51 - -
03:58 15,2 5,1 9,3 SW 10,5 1006,3 51 - -
04:03 15,2 5,1 14,0 West 17,2 1006,3 51 - -
04:08 15,1 5,0 2,1 NNE 24,5 1006,3 51 - -
04:13 15,1 5,0 6,4 SSW 15,8 1006,3 51 - -
04:18 15,1 5,3 3,2 ESE 17,7 1007,3 52 - -
04:23 15,0 5,2 5,5 NNE 14,0 1007,3 52 - -
04:28 15,0 5,2 7,9 WNW 23,3 1007,3 52 - -
04:33 14,9 5,1 12,6 East 19,8 1006,3 52 - -
04:38 14,9 5,1 5,5 SW 16,6 1006,3 52 - -
04:43 14,9 5,1 13,0 West 28,5 1006,3 52 - -
04:48 14,9 5,1 11,1 NE 24,8 1006,3 52 - -
04:53 14,9 5,1 17,2 East 31,4 1006,3 52 - -
04:58 14,9 5,1 12,2 West 13,0 1006,3 52 - -
05:03 14,9 5,1 14,0 East 16,9 1006,3 52 - -
05:08 14,9 4,9 9,7 South 22,4 1006,3 51 - -
05:13 14,9 4,9 6,1 East 16,6 1006,3 51 - -
05:18 14,9 4,9 16,6 West 23,8 1006,3 51 - -
05:23 14,9 4,9 6,4 East 15,1 1006,3 51 - -
05:28 15,0 4,7 11,1 East 11,1 1006,3 50 - -
05:33 15,0 4,7 9,0 East 9,0 1006,3 50 - -
05:38 15,0 4,7 3,2 WSW 9,0 1006,3 50 - -
05:43 15,0 4,7 14,0 ENE 16,3 1006,3 50 - -
05:48 15,0 4,7 8,7 NW 17,7 1007,3 50 - -
05:53 14,9 4,6 22,7 East 22,7 1007,3 50 - -
05:58 14,9 4,6 4,7 East 19,8 1007,3 50 - -
06:03 14,8 4,8 9,3 SSE 20,6 1006,3 51 - -
06:08 14,8 4,8 5,8 East 23,3 1006,3 51 - -
06:13 14,8 4,8 7,6 SE 27,7 1006,3 51 - -
06:18 14,7 4,7 4,3 West 20,6 1006,3 51 - -
06:23 14,7 4,7 4,7 East 24,8 1006,3 51 - -
06:28 14,6 4,6 4,3 NNE 11,9 1006,3 51 - -
06:33 14,5 4,5 23,8 East 23,8 1006,3 51 - -
06:38 14,5 4,5 5,5 NW 20,6 1006,3 51 - -
06:43 14,5 4,5 10,5 East 15,8 1006,3 51 - -
06:48 14,4 4,4 7,6 NE 15,4 1007,3 51 - -
06:53 14,4 4,4 15,4 NNW 16,6 1007,3 51 - -
06:58 14,3 4,3 5,8 WNW 15,8 1007,3 51 - -
07:03 14,3 4,3 19,1 West 19,1 1007,3 51 - -
07:08 14,2 4,2 17,7 West 17,7 1007,3 51 - -
07:13 14,2 4,2 7,9 WSW 23,3 1007,3 51 - -
07:18 14,2 4,2 9,7 ENE 16,6 1006,3 51 - -
07:23 14,2 4,2 5,0 East 17,2 1006,3 51 - -
07:28 14,1 4,1 9,7 NNW 17,2 1006,3 51 - -
07:33 14,0 4,3 17,7 ENE 17,7 1007,3 52 - -
07:38 14,0 4,3 10,1 SSW 16,6 1007,3 52 - -
07:43 14,0 4,0 12,6 WNW 20,6 1007,3 51 - -
07:48 14,0 4,0 19,8 West 19,8 1006,3 51 - -
07:53 14,0 4,0 16,9 NNE 16,9 1006,3 51 - -
07:58 14,0 4,0 16,9 NNE 16,9 1006,3 51 - -
08:03 14,0 4,0 20,6 East 20,9 1007,3 51 - -
08:08 14,0 4,0 20,6 WNW 24,8 1007,3 51 - -
08:13 14,0 4,0 9,7 ENE 15,4 1007,3 51 - -
08:18 14,0 4,0 1,4 South 6,4 1008,4 51 - -
08:23 14,0 4,0 2,1 West 8,7 1008,4 51 - -
08:28 13,9 3,9 5,0 WNW 19,5 1008,4 51 - -
08:33 14,0 4,0 12,2 East 17,2 1008,4 51 - -
08:38 14,0 4,0 9,3 NW 21,2 1008,4 51 - -
08:43 14,0 3,7 20,1 East 24,5 1008,4 50 - -
08:48 14,2 3,9 8,7 East 13,0 1009,4 50 - -
08:53 14,2 3,9 20,6 East 20,6 1009,4 50 - -
08:58 14,2 3,9 9,0 WNW 21,2 1009,4 50 - -
09:03 14,2 3,9 12,6 East 19,5 1008,4 50 - -
09:08 14,2 3,9 10,8 East 19,8 1008,4 50 - -
09:13 14,2 3,9 6,1 ENE 23,0 1008,4 50 - -
09:18 14,3 4,0 5,8 WNW 10,5 1009,4 50 - -
09:23 14,3 4,0 5,8 West 10,5 1009,4 50 - -
09:28 14,4 4,1 14,0 East 21,2 1009,4 50 - -
09:33 14,3 4,0 6,1 East 6,4 1010,4 50 - -
09:38 14,4 4,1 16,3 ENE 16,3 1010,4 50 - -
09:43 14,4 4,1 6,9 SSE 16,3 1010,4 50 - -
09:48 14,4 4,1 6,9 SSE 6,9 1009,4 50 - -
09:53 14,5 4,2 7,9 SE 7,9 1009,4 50 - -
09:58 14,6 4,3 7,9 SE 7,9 1009,4 50 - -
10:03 14,7 4,4 7,9 SW 7,9 1009,4 50 - -
10:08 14,7 4,4 9,3 ENE 9,3 1009,4 50 - -
10:13 14,8 4,5 5,0 WNW 20,1 1009,4 50 - -
10:18 14,9 4,3 12,2 ENE 12,6 1009,4 49 - -
10:23 15,0 4,4 5,0 East 5,0 1009,4 49 - -
10:28 15,1 4,5 5,0 East 5,0 1009,4 49 - -
10:33 15,2 4,6 1,4 West 13,7 1011,4 49 - -
10:38 15,4 4,4 1,4 East 10,1 1011,4 48 - -
10:43 15,6 4,6 6,4 East 6,4 1011,4 48 - -
10:48 15,8 4,8 1,4 West 1,4 1011,4 48 - -
10:53 16,0 5,0 2,1 West 2,1 1011,4 48 - -
10:58 16,2 5,2 4,0 West 4,0 1011,4 48 - -
11:03 16,3 5,3 4,0 West 4,0 1011,4 48 - -
11:08 16,4 5,4   Calm 2,1 1011,4 48 - -
11:13 16,5 5,5   Calm 3,5 1011,4 48 - -
11:18 16,7 5,6   Calm 2,6 1011,4 48 - -
11:23 16,8 5,4 6,1 East 6,1 1011,4 47 - -
11:28 16,6 5,2 10,1 West 10,1 1011,4 47 - -
11:33 16,4 5,1 6,9 East 10,1 1011,4 47 - -
11:38 16,4 5,1 6,9 East 6,9 1011,4 47 - -
11:43 16,6 5,2 6,9 East 6,9 1011,4 47 - -
11:48 16,7 5,3 6,9 East 6,9 1012,4 47 - -
11:53 16,8 5,4 6,9 East -1607,4 1012,4 47 - -
11:58 16,9 5,5   Calm -1607,4 1012,4 47 - -
12:03 17,0 5,3   Calm -1607,4 1011,4 46 - -
12:08 16,9 5,2   Calm -1607,4 1011,4 46 - -
12:13 16,8 5,4   Calm -1607,4 1011,4 47 - -
12:18 16,9 5,5 1,4 SE 3,5 1011,4 47 - -
12:23 16,9 5,2   Calm 5,0 1011,4 46 - -
12:28 16,8 5,1 4,0 East 5,0 1011,4 46 - -
12:33 16,7 5,0 6,1 East 6,1 1010,4 46 - -
12:38 16,6 4,9 1,8 East 8,7 1010,4 46 - -
12:43 16,6 4,9   Calm 11,1 1010,4 46 - -
12:48 16,6 4,9 6,9 West 6,9 1010,4 46 - -
12:53 16,7 5,0   Calm 5,8 1010,4 46 - -
12:58 17,0 5,3   Calm   1010,4 46 - -
13:03 17,0 5,0   Calm   1011,4 45 - -
13:08 16,9 5,2 2,6 NNE 2,6 1011,4 46 - -
13:13 17,2 5,5   Calm 2,6 1011,4 46 - -
13:18 17,5 5,7 4,0 West 4,0 1010,4 46 - -
13:23 17,3 5,3 9,7 East 9,7 1010,4 45 - -
13:28 17,2 5,2   Calm 1,4 1010,4 45 - -
13:33 17,3 5,3   Calm   1010,4 45 - -
13:38 17,4 5,3 1,8 NE 1,8 1010,4 45 - -
13:43 17,4 5,3   Calm   1010,4 45 - -
13:48 17,4 5,3   Calm   1010,4 45 - -
13:53 17,6 5,5 2,6 East 2,6 1010,4 45 - -
13:58 17,6 5,5   Calm 6,1 1010,4 45 - -
14:03 17,3 5,3 1,4 West 5,5 1012,4 45 - -
14:08 17,4 5,3 3,2 East 4,0 1012,4 45 - -
14:13 17,5 5,4 4,0 East 4,0 1012,4 45 - -
14:18 17,5 5,4 6,9 East 6,9 1010,4 45 - -
14:23 17,3 5,3 4,3 WSW 4,3 1010,4 45 - -
14:28 17,4 5,3 3,2 ENE 3,2 1010,4 45 - -
14:33 17,5 5,4 1,4 WSW 3,2 1011,4 45 - -
14:38 17,5 5,4 2,1 East 2,1 1011,4 45 - -
14:43 17,6 5,5 2,6 East 5,5 1011,4 45 - -
14:48 17,4 5,3 4,7 East 5,0 1010,4 45 - -
14:53 17,3 5,3   Calm 5,8 1010,4 45 - -
14:58 17,3 5,3   Calm 4,7 1010,4 45 - -
15:03 17,5 5,4 2,6 South 2,6 1011,4 45 - -
15:08 17,6 5,5   Calm 2,1 1011,4 45 - -
15:13 17,7 5,6   Calm 6,4 1011,4 45 - -
15:18 17,6 5,5   Calm 2,1 1012,4 45 - -
15:23 17,6 5,5 1,4 West 1,4 1012,4 45 - -
15:28 17,5 5,4 1,8 WNW 5,8 1012,4 45 - -
15:33 17,4 5,3 14,0 SSE 14,0 1011,4 45 - -
15:38 17,0 5,0 1,4 WSW 14,0 1011,4 45 - -
15:43 16,8 4,8 4,0 WNW 4,0 1011,4 45 - -
15:48 16,5 4,5 7,6 NNE 15,4 1011,4 45 - -
15:53 16,3 4,3 12,6 SSE 12,6 1011,4 45 - -
15:58 16,1 4,5 8,7 SE 8,7 1011,4 46 - -
16:03 15,9 4,3 6,9 East 11,9 1010,4 46 - -
16:08 15,6 4,0 9,3 East 9,3 1010,4 46 - -
16:13 15,5 4,2 4,7 East 11,6 1010,4 47 - -
16:18 15,4 4,1 7,9 East 10,5 1010,4 47 - -
16:23 15,4 4,1 4,3 East 11,9 1010,4 47 - -
16:28 15,3 4,1 2,6 West 5,8 1010,4 47 - -
16:33 15,2 4,0 4,7 WNW 4,7 1011,4 47 - -
16:38 15,2 4,0 2,6 West 4,7 1011,4 47 - -
16:43 15,2 4,0   Calm 2,6 1011,4 47 - -
16:48 15,0 3,8 1,8 West 1,8 1010,4 47 - -
16:53 14,9 4,0 5,5 SE 9,7 1010,4 48 - -
16:58 14,8 3,9 6,9 East 16,3 1010,4 48 - -
17:03 14,7 3,8 15,1 West 15,1 1011,4 48 - -
17:08 14,7 3,8 5,8 ESE 11,6 1011,4 48 - -
17:13 14,7 3,8 6,1 ENE 16,6 1011,4 48 - -
17:18 14,6 3,7 4,3 NE 5,8 1011,4 48 - -
17:23 14,6 3,7 4,3 East 14,0 1011,4 48 - -
17:28 14,5 3,9 5,0 ESE 13,7 1011,4 49 - -
17:33 14,5 3,9 10,5 SW 11,1 1011,4 49 - -
17:38 14,4 3,8 11,9 East 15,8 1011,4 49 - -
17:43 14,4 3,8 9,7 East 9,7 1011,4 49 - -
17:48 14,4 3,8 13,7 SE 13,7 1011,4 49 - -
17:53 14,4 3,8 7,9 East 9,7 1011,4 49 - -
17:58 14,3 3,7 9,3 East 16,3 1011,4 49 - -
18:03 14,3 3,7 14,0 East 14,0 1011,4 49 - -
18:08 14,3 3,7 5,8 West 5,8 1011,4 49 - -
18:13 14,3 3,7 2,6 East 2,6 1011,4 49 - -
18:18 14,3 3,7 6,9 North 6,9 1011,4 49 - -
18:23 14,3 3,7 7,2 East 7,2 1011,4 49 - -
18:28 14,2 3,6 1,4 ENE 12,2 1011,4 49 - -
18:33 14,2 3,6 4,3 East 12,6 1011,4 49 - -
18:38 14,2 3,6 2,6 East 2,6 1011,4 49 - -
18:43 14,3 3,7 4,3 ENE 10,1 1011,4 49 - -
18:48 14,3 3,7 3,5 SSE 3,5 1011,4 49 - -
18:53 14,3 3,7 1,4 East 1,4 1011,4 49 - -
18:58 14,3 3,7 4,3 SSE 4,3 1011,4 49 - -
19:03 14,3 3,7 7,9 East 16,9 1011,4 49 - -
19:08 14,2 3,6 11,9 East 11,9 1011,4 49 - -
19:13 14,2 3,6 5,0 East 5,5 1011,4 49 - -
19:18 14,2 3,3 9,3 East 9,3 1012,4 48 - -
19:23 14,3 3,4 2,6 West 2,6 1012,4 48 - -
19:28 14,2 3,3 2,6 West 2,6 1012,4 48 - -
19:33 14,2 3,3 1,8 West 11,6 1012,4 48 - -
19:38 14,2 3,3 5,5 East 10,1 1012,4 48 - -
19:43 14,2 3,3 4,0 West 6,4 1012,4 48 - -
19:48 14,1 3,3 11,1 East 12,6 1012,4 48 - -
19:53 14,2 3,3 2,1 West 6,1 1012,4 48 - -
19:58 14,2 3,3 2,1 West 2,1 1012,4 48 - -
20:03 14,2 3,3 2,1 West 2,1 1012,4 48 - -
20:08 14,2 3,3 5,0 West 5,5 1012,4 48 - -
20:13 14,2 3,3 1,4 WSW 1,4 1012,4 48 - -
20:18 14,2 3,3 1,4 WSW 1,4 1012,4 48 - -

Download your copy of this data-set  here

Our weather-data as stored at Weather Underground. Script developed by Jim McMurry. Adapted for the template by Leuven-Template.eu

You find our weather info also at:

European Weather Network

WeatherCloud

Weather Underground

Meteoclimatic

Equipment we use:

Weather-program
Weather Display

Weather-server
RaspberryPI 2

Provider

Weather Display

RaspberryPI 2